Location: Augustenthal
(51.7167°N, 10.2833°E)
Time: 08:26:25
(UTC+00:00)

Cosmos 1733 Rocket - Pass Details

Date: 18 May 2021
Orbit: 603 x 628 km, 82.5° (Epoch: 20 June)

Event Time Altitude Azimuth Distance (km) Brightness Sun altitude
Rises 21:35:56 0° 343° (NNW) 2,872 8.3 -15.3°
Reaches altitude 10° 21:38:15 10° 337° (NNW) 1,963 7.0 -15.4°
Maximum altitude 21:42:18 40° 267° (W) 896 4.0 -15.7°
Enters shadow 21:45:12 17° 205° (SSW) 1,531 4.7 -15.9°
